CW5456 Hansville WA US current weather conditions

sailwx.info

Wind from 142 at 4 knots gusting 13

Air temperature 5.6° C
Dewpoint 4.0° C

Last reported at 2018-Jan-22 15:00 UTC.
Time now 2018-Jan-22 15:53 UTC

Location: N 47°55' W 122°35'.
View on Google Maps.

See reports from other nearby stations

  
Tides and Currents Weather Stations Pressure Air Temp Water Temp Dewpoint Dewpoint Depression Visibility Wind Speed Wind Dir Waves Ship Positions
date/time (UTC)wind fromknots sea level pressurealtimeterstation pressurevisibilityair tempwater tempwave heightnotes
2018-Jan-22 15:20 126 5 gusting 11 5.6
2018-Jan-22 15:10 090 7 gusting 9 5.6
2018-Jan-22 15:00 142 4 gusting 13 5.6
2018-Jan-22 14:50 153 6 gusting 10 5.6
2018-Jan-22 14:40 131 5 gusting 10 5.6
2018-Jan-22 14:30 112 7 gusting 15 5.6
2018-Jan-22 14:20 122 9 gusting 10 5.6
2018-Jan-22 14:10 100 6 gusting 10 5.6
2018-Jan-22 14:00 081 1 gusting 9 5.6
2018-Jan-22 13:50 077 2 gusting 11 5.6
2018-Jan-22 13:40 104 3 gusting 11 5.6
2018-Jan-22 13:30 147 3 gusting 10 5.6
2018-Jan-22 13:20 132 4 gusting 14 5.6
2018-Jan-22 13:10 145 1 gusting 12 5.6
2018-Jan-22 13:00 072 0 gusting 14 5.6
2018-Jan-22 12:50 152 6 gusting 12 6.1
2018-Jan-22 12:40 091 6 gusting 11 6.1
2018-Jan-22 12:30 110 6 gusting 13 6.1
2018-Jan-22 12:20 086 3 gusting 13 6.1
2018-Jan-22 12:10 122 3 gusting 12 5.6
2018-Jan-22 12:00 125 3 gusting 8 5.6
2018-Jan-22 11:50 117 6 gusting 14 5.6
2018-Jan-22 11:40 116 5 gusting 19 5.6
2018-Jan-22 11:30 143 5 gusting 13 5.6
2018-Jan-22 11:20 098 6 gusting 19 5.6
2018-Jan-22 11:10 056 9 gusting 16 5.6
2018-Jan-22 11:00 112 7 gusting 16 6.1
2018-Jan-22 10:50 122 2 gusting 16 6.1
2018-Jan-22 10:40 077 6 gusting 17 6.1
2018-Jan-22 10:30 127 9 gusting 23 6.1
2018-Jan-22 10:20 120 12 gusting 23 6.1
2018-Jan-22 10:10 120 13 gusting 15 6.1
2018-Jan-22 10:00 170 10 gusting 17 6.1
2018-Jan-22 09:50 156 11 gusting 18 6.1
2018-Jan-22 09:40 106 9 gusting 18 6.1
2018-Jan-22 09:30 114 12 gusting 21 6.1
2018-Jan-22 09:20 116 11 gusting 21 6.1
2018-Jan-22 09:10 125 9 gusting 17 6.1
2018-Jan-22 09:00 127 10 gusting 24 6.1
2018-Jan-22 08:50 098 7 gusting 20 6.1
2018-Jan-22 08:40 131 10 gusting 20 6.1
2018-Jan-22 08:30 109 7 gusting 23 6.1
2018-Jan-22 08:20 128 16 gusting 21 6.1
2018-Jan-22 08:10 077 5 gusting 21 6.1
2018-Jan-22 08:00 136 14 gusting 24 6.1
2018-Jan-22 07:50 117 13 gusting 21 6.1
2018-Jan-22 07:40 113 8 gusting 17 6.1
2018-Jan-22 07:30 108 17 gusting 19 6.1
2018-Jan-22 07:20 112 6 gusting 17 6.1
2018-Jan-22 07:10 099 6 gusting 20 6.1
2018-Jan-22 07:00 125 16 gusting 23 6.1
2018-Jan-22 06:50 123 17 gusting 22 6.1
2018-Jan-22 06:40 118 15 gusting 24 6.1
2018-Jan-22 06:30 129 13 gusting 22 6.1
2018-Jan-22 06:20 120 14 gusting 19 6.1
2018-Jan-22 06:10 111 7 gusting 21 6.1
2018-Jan-22 06:00 120 10 gusting 18 6.1
2018-Jan-22 05:50 112 3 gusting 19 6.1
2018-Jan-22 05:40 103 13 gusting 19 6.1
2018-Jan-22 05:30 087 5 gusting 18 6.1
2018-Jan-22 05:20 100 18 gusting 19 6.1
2018-Jan-22 05:10 089 9 gusting 21 6.1
2018-Jan-22 05:00 123 15 gusting 22 5.6
2018-Jan-22 04:50 114 8 gusting 18 5.6
2018-Jan-22 04:40 099 1 gusting 14 5.6
2018-Jan-22 04:30 119 6 gusting 15 5.0
2018-Jan-22 04:20 090 3 gusting 12 5.0
2018-Jan-22 04:10 105 2 gusting 19 5.6
2018-Jan-22 04:00 133 19 gusting 21 5.6
2018-Jan-22 03:50 087 13 gusting 16 5.6
2018-Jan-22 03:40 141 11 gusting 15 5.6
2018-Jan-22 03:30 098 4 gusting 15 5.6
2018-Jan-22 03:20 106 3 gusting 10 5.0
2018-Jan-22 03:10 116 5.0
2018-Jan-22 03:00 128 4 gusting 13 5.0
2018-Jan-22 02:50 110 6 gusting 13 5.0
2018-Jan-22 02:40 081 5 gusting 13 5.6
2018-Jan-22 02:30 102 6 gusting 13 5.6
2018-Jan-22 02:20 115 10 gusting 16 6.1
2018-Jan-22 02:10 117 9 gusting 16 6.1
2018-Jan-22 02:00 079 6 gusting 22 6.1
2018-Jan-22 01:50 114 9 gusting 21 6.1
2018-Jan-22 01:40 107 7 gusting 23 6.1
2018-Jan-22 01:30 084 9 gusting 25 6.1
2018-Jan-22 01:20 137 6 gusting 16 6.1
2018-Jan-22 01:10 110 11 gusting 20 6.1
2018-Jan-22 01:00 106 6 gusting 19 6.1
2018-Jan-22 00:50 121 6 gusting 15 6.1
2018-Jan-22 00:39 099 3 gusting 13 6.1
2018-Jan-22 00:30 086 5 gusting 7 6.1
2018-Jan-22 00:20 104 7 gusting 9 6.1
2018-Jan-22 00:10 111 6 gusting 7 6.1
2018-Jan-22 00:00 102 6 gusting 10 6.1
2018-Jan-21 23:50 129 1 gusting 15 6.7
2018-Jan-21 23:40 087 11 gusting 18 7.2
2018-Jan-21 23:30 110 1 gusting 12 7.2
2018-Jan-21 23:20 168 2 gusting 13 7.2
2018-Jan-21 23:10 131 6 gusting 15 7.2
2018-Jan-21 23:00 100 7 gusting 19 7.8
2018-Jan-21 22:50 120 15 gusting 27 7.8
2018-Jan-21 22:40 114 4 gusting 16 7.8
2018-Jan-21 22:30 116 8 gusting 16 7.8
2018-Jan-21 22:20 094 10 gusting 20 7.8
2018-Jan-21 22:10 124 9 gusting 22 8.3
2018-Jan-21 22:00 098 17 gusting 20 8.3
2018-Jan-21 21:50 119 9 gusting 22 8.3
2018-Jan-21 21:40 157 7 gusting 26 8.9
2018-Jan-21 21:30 086 15 gusting 24 9.4
2018-Jan-21 21:20 110 12 gusting 24 9.4
2018-Jan-21 21:10 147 6 gusting 26 9.4
2018-Jan-21 21:00 120 9 gusting 29 8.9
2018-Jan-21 20:50 102 14 gusting 20 8.9
2018-Jan-21 20:40 133 20 gusting 28 8.9
2018-Jan-21 20:30 127 13 gusting 22 8.3
2018-Jan-21 20:20 101 15 gusting 26 7.8
2018-Jan-21 20:10 122 11 gusting 21 7.8
2018-Jan-21 20:00 146 7 gusting 29 7.8
2018-Jan-21 19:50 137 7 gusting 24 7.8
2018-Jan-21 19:40 125 15 gusting 29 7.8
2018-Jan-21 19:30 120 13 gusting 25 7.8
2018-Jan-21 19:20 100 10 gusting 26 7.8
2018-Jan-21 19:10 082 12 gusting 22 7.8
2018-Jan-21 19:00 161 5 gusting 19 7.8
2018-Jan-21 18:50 141 10 gusting 19 7.2
2018-Jan-21 18:40 098 3 gusting 12 7.2
2018-Jan-21 18:30 139 0 gusting 10 7.2
2018-Jan-21 18:20 113 6 gusting 6 7.2
2018-Jan-21 18:10 108 1 gusting 8 7.2
2018-Jan-21 18:00 079 3 gusting 13 7.2
2018-Jan-21 17:50 115 2 gusting 11 7.2
2018-Jan-21 17:40 100 3 gusting 12 7.2
2018-Jan-21 17:30 107 1 gusting 13 7.2
2018-Jan-21 17:20 082 5 gusting 13 7.2
2018-Jan-21 17:10 105 4 gusting 19 7.2
2018-Jan-21 17:00 129 15 gusting 15 7.2
2018-Jan-21 16:50 099 4 gusting 21 7.2
2018-Jan-21 16:40 062 6 gusting 19 7.2
2018-Jan-21 16:30 114 13 gusting 17 7.2
2018-Jan-21 16:20 123 2 gusting 19 7.2
2018-Jan-21 16:10 126 15 gusting 20 7.2
2018-Jan-21 16:00 112 11 gusting 20 7.2
2018-Jan-21 15:50 116 13 gusting 22 7.2
2018-Jan-21 15:40 087 9 gusting 23 7.2
2018-Jan-21 15:30 085 8 gusting 23 7.2
2018-Jan-21 15:20 131 13 gusting 24 7.2
2018-Jan-21 15:10 120 13 gusting 31 7.8
2018-Jan-21 15:00 152 13 gusting 25 7.2
2018-Jan-21 14:50 122 11 gusting 26 7.2
2018-Jan-21 14:40 051 6 gusting 24 7.2
2018-Jan-21 14:30 098 9 gusting 24 7.8
2018-Jan-21 14:20 111 4 gusting 24 7.8
2018-Jan-21 14:10 119 14 gusting 24 7.8
2018-Jan-21 14:00 143 7 gusting 30 7.8
2018-Jan-21 13:50 109 6 gusting 21 7.8
2018-Jan-21 13:40 136 21 gusting 25 7.8
2018-Jan-21 13:30 100 11 gusting 22 7.8
2018-Jan-21 13:20 096 7 gusting 27 7.8
2018-Jan-21 13:10 110 14 gusting 26 7.8
2018-Jan-21 13:00 059 10 gusting 31 7.8
2018-Jan-21 12:50 054 8 gusting 24 7.8
2018-Jan-21 12:40 114 19 gusting 25 7.8
2018-Jan-21 12:30 098 20 gusting 26 8.3
2018-Jan-21 12:20 098 17 gusting 27 8.3
2018-Jan-21 12:10 084 15 gusting 27 8.3
2018-Jan-21 12:00 091 10 gusting 24 8.3
2018-Jan-21 11:50 085 7 gusting 38 8.3
2018-Jan-21 11:40 115 13 gusting 29 8.9
2018-Jan-21 11:30 129 7 gusting 31 8.9
2018-Jan-21 11:20 088 6 gusting 29 8.3
2018-Jan-21 11:10 087 7 gusting 30 8.3
2018-Jan-21 11:00 137 13 gusting 35 8.3
2018-Jan-21 10:50 149 14 gusting 30 7.8
2018-Jan-21 10:40 099 11 gusting 27 7.8
2018-Jan-21 10:30 109 17 gusting 26 7.8
2018-Jan-21 10:20 122 13 gusting 23 7.8
2018-Jan-21 10:10 100 10 gusting 25 7.8
2018-Jan-21 10:00 100 13 gusting 28 8.3
2018-Jan-21 09:50 125 15 gusting 24 8.3
2018-Jan-21 09:40 149 4 gusting 23 8.3
2018-Jan-21 09:30 095 7 gusting 23 8.3
2018-Jan-21 09:20 104 10 gusting 24 8.9
2018-Jan-21 09:09 091 6 gusting 26 8.9
2018-Jan-21 09:00 110 10 gusting 26 8.9
2018-Jan-21 08:50 112 7 gusting 22 8.9
2018-Jan-21 08:40 095 17 gusting 21 8.9
2018-Jan-21 08:30 105 13 gusting 24 8.9
2018-Jan-21 08:20 077 8 gusting 25 8.9
2018-Jan-21 08:10 091 4 gusting 19 8.9
2018-Jan-21 08:00 114 13 gusting 25 8.9
2018-Jan-21 07:50 123 8 gusting 24 8.9
2018-Jan-21 07:40 074 7 gusting 23 8.9
2018-Jan-21 07:30 126 11 gusting 29 8.9
2018-Jan-21 07:20 093 10 gusting 22 8.3
2018-Jan-21 07:10 151 14 gusting 27 8.3
2018-Jan-21 07:00 122 19 gusting 23 8.3
2018-Jan-21 06:50 116 12 gusting 20 7.8
2018-Jan-21 06:40 091 6 gusting 24 7.8
2018-Jan-21 06:30 121 6 gusting 16 7.2
2018-Jan-21 06:20 125 9 gusting 19 7.2
2018-Jan-21 06:10 106 9 gusting 15 7.2
2018-Jan-21 06:00 102 8 gusting 21 7.2
2018-Jan-21 05:50 103 3 gusting 17 7.2
2018-Jan-21 05:40 074 3 gusting 16 7.2
2018-Jan-21 05:30 056 2 gusting 13 7.8
2018-Jan-21 05:20 117 6 gusting 18 7.8
2018-Jan-21 05:10 107 12 gusting 23 7.8
2018-Jan-21 05:00 087 7 gusting 24 7.8
2018-Jan-21 04:50 119 8 gusting 24 8.3
2018-Jan-21 04:40 100 4 gusting 23 8.3
2018-Jan-21 04:30 102 22 gusting 28 8.3
2018-Jan-21 04:20 099 12 gusting 23 8.3
2018-Jan-21 04:10 107 11 gusting 23 8.3
2018-Jan-21 04:00 112 9 gusting 26 8.3
2018-Jan-21 03:50 110 15 gusting 26 8.3
2018-Jan-21 03:40 102 8 gusting 27 8.3
2018-Jan-21 03:30 095 26 gusting 29 7.8
2018-Jan-21 03:20 116 9 gusting 23 7.8
2018-Jan-21 03:10 115 13 gusting 26 7.8
2018-Jan-21 03:00 087 17 gusting 25 7.8
2018-Jan-21 02:50 112 11 gusting 24 7.8
2018-Jan-21 02:40 097 4 gusting 26 7.8
2018-Jan-21 02:30 126 15 gusting 24 7.2
2018-Jan-21 02:20 109 8 gusting 19 7.2
2018-Jan-21 02:10 079 16 gusting 26 7.2
2018-Jan-21 02:00 135 13 gusting 17 7.2
2018-Jan-21 01:50 087 13 gusting 24 7.2
2018-Jan-21 01:40 085 6 gusting 18 7.2
2018-Jan-21 01:30 099 11 gusting 22 7.2
2018-Jan-21 01:20 125 10 gusting 22 7.2
2018-Jan-21 01:10 114 13 gusting 23 7.2
2018-Jan-21 01:00 109 13 gusting 25 7.8
2018-Jan-21 00:50 120 9 gusting 25 7.2
2018-Jan-21 00:40 079 3 gusting 19 7.2
2018-Jan-21 00:30 108 9 gusting 26 7.2
2018-Jan-21 00:20 131 11 gusting 23 7.2
2018-Jan-21 00:10 105 10 gusting 25 7.8
2018-Jan-21 00:00 115 15 gusting 23 7.8
2018-Jan-20 23:50 091 8 gusting 19 7.8
2018-Jan-20 23:40 108 9 gusting 20 7.8
2018-Jan-20 23:30 094 17 gusting 25 7.8
2018-Jan-20 23:20 102 11 gusting 20 7.8
2018-Jan-20 23:10 113 12 gusting 19 7.8
2018-Jan-20 23:00 098 4 gusting 22 7.8
2018-Jan-20 22:50 097 7 gusting 21 7.8
2018-Jan-20 22:40 120 9 gusting 19 7.2
2018-Jan-20 22:30 118 10 gusting 18 7.2
2018-Jan-20 22:20 100 8 gusting 19 7.2
2018-Jan-20 22:10 094 11 gusting 21 7.2
2018-Jan-20 22:00 112 13 gusting 23 7.2
2018-Jan-20 21:50 106 15 gusting 18 7.2
2018-Jan-20 21:40 104 3 gusting 22 6.7
2018-Jan-20 21:30 127 22 gusting 22 7.2
2018-Jan-20 21:20 137 10 gusting 19 7.2
2018-Jan-20 21:10 123 9 gusting 18 7.2
2018-Jan-20 21:00 135 16 gusting 23 7.2
2018-Jan-20 20:50 085 8 gusting 26 7.2
2018-Jan-20 20:40 119 13 gusting 19 7.2
2018-Jan-20 20:30 115 13 gusting 20 7.2
2018-Jan-20 20:20 123 8 gusting 21 7.2
2018-Jan-20 20:10 087 6 gusting 18 7.2
2018-Jan-20 20:00 090 14 gusting 19 7.2
2018-Jan-20 19:50 119 4 gusting 27 7.2
2018-Jan-20 19:40 111 3 gusting 19 7.2
2018-Jan-20 19:30 116 8 gusting 19 7.2
2018-Jan-20 19:20 103 9 gusting 21 7.2
2018-Jan-20 19:10 129 13 gusting 18 7.2
2018-Jan-20 19:00 118 6 gusting 15 6.7
2018-Jan-20 18:50 141 15 gusting 15 6.7
2018-Jan-20 18:40 104 7 gusting 15 6.7
2018-Jan-20 18:30 141 8 gusting 15 6.7
2018-Jan-20 18:20 118 1 gusting 19 6.7
2018-Jan-20 18:10 120 10 gusting 18 6.1
2018-Jan-20 18:00 134 6 gusting 11 6.1
2018-Jan-20 17:50 091 6 gusting 10 6.1
2018-Jan-20 17:40 156 4 gusting 12 6.1
2018-Jan-20 17:30 103 2 gusting 11 6.1
2018-Jan-20 17:20 128 5 gusting 11 6.1
2018-Jan-20 17:10 118 7 gusting 9 5.6
2018-Jan-20 17:00 108 2 gusting 11 5.6
2018-Jan-20 16:50 093 2 gusting 6 5.6
2018-Jan-20 16:39 134 4 gusting 8 5.6
2018-Jan-20 16:29 128 1 gusting 7 5.6
2018-Jan-20 16:20 098 0 gusting 7 5.6
2018-Jan-20 16:10 070 3 gusting 8 5.6
2018-Jan-20 16:00 112 3 gusting 9 5.6
2018-Jan-20 15:50 108 4 gusting 9 5.6
2018-Jan-20 15:40 124 1 gusting 14 5.6
2018-Jan-20 15:30 081 5 gusting 13 5.6
2018-Jan-20 15:20 108 10 gusting 14 5.6
2018-Jan-20 15:10 108 8 gusting 13 5.0
2018-Jan-20 15:00 108 3 gusting 19 5.0